Regional Weather Roundup
Issued by NWS

Home | Current Version | Previous Version | Text Only | Print | Product List | Glossary On
Versions: 1 2 3 4 5 6 7 8 9 10 11 12 13 14 15 16 17 18 19 20 21 22 23 24 25 26 27 28 29 30 31 32 33 34 35 36 37 38 39 40 41 42 43 44 45 46 47 48 49 50
000
ASUS44 KLIX 080713
RWRLA
LOUISIANA WEATHER ROUNDUP
NATIONAL WEATHER SERVICE NEW ORLEANS LA
100 AM CST THU DEC 08 2016

NOTE: "FAIR" INDICATES FEW OR NO CLOUDS BELOW 12,000 FEET WITH NO
      SIGNIFICANT WEATHER AND/OR OBSTRUCTIONS TO VISIBILITY.
      SKY/WX - SKY CONDITION AND SIGNIFICANT WEATHER.
      TMP - AIR TEMPERATURE.    DP   - DEWPOINT TEMPERATURE.
      RH  - RELATIVE HUMIDITY.  PRES - PRESSURE.
      HX  - HEAT INDEX.         WCI  - WIND CHILL INDEX.

*  THESE STATIONS ARE NOT NWS OR FAA STATIONS AND ARE NOT UNDER
   NWS QUALITY CONTROL.

LAZ040-048-061>063-065-066-069-080800-
SOUTHEAST LOUISIANA

CITY           SKY/WX    TMP DP  RH WIND       PRES   REMARKS
N.O. AUDUBON   NOT AVBL
N.O. INTL ARPT CLOUDY    58  56  93 NE7       30.18S
N.O. LAKEFRONT CLOUDY    58  55  90 NE12      30.19S
N.O. DOWNTOWN*   N/A     58  54  86 N8        30.19S
RESERVE*       PTSUNNY   58  56  93 E9        30.15F
SLIDELL        CLOUDY    57  53  86 N3        30.17F
BATON ROUGE    CLEAR     52  50  93 N5        30.17R
BOOTHVILLE     PTCLDY    59  58  96 N6        30.16S
BELLE CHASSE   CLOUDY    59  54  83 N5        30.17S
BOGALUSA*      FAIR      50  48  90 CALM      30.19F
GALLIANO*      RAIN      60  55  85 NE6       30.16S
NEW ROADS*     CLOUDY    51  50  97 N5        30.18S
GONZALES*      CLOUDY    55  54  97 CALM      30.15R
HAMMOND*       CLEAR     52  50  93 CALM      30.16F
HOUMA*         CLOUDY    59  57  95 N8        30.16F FOG
PORT FOURCHON* PTSUNNY   63  57  82 NE12      30.16R

$$

LAZ041-044-053-054-080800-
SOUTHWEST LOUISIANA

CITY           SKY/WX    TMP DP  RH WIND       PRES   REMARKS
LAKE CHARLES   CLOUDY    55  52  89 N9        30.18R
LAFAYETTE      MOCLDY    55  53  93 NE6       30.16S
PATTERSON      CLOUDY   N/A N/A N/A E8        30.14S HAZE
SALT POINT     NOT AVBL
NEW IBERIA     CLOUDY    57  52  83 NE7       30.16F
CHENAULT AIRPK CLOUDY    54  52  93 N9        30.17S

$$

LAZ027-028-080800-
CENTRAL LOUISIANA

CITY           SKY/WX    TMP DP  RH WIND       PRES   REMARKS
FORT POLK      CLOUDY    51  50  97 N7        30.20S
ALEXANDRIA INT CLOUDY    51  48  89 N7        30.22R
ALEXANDRIA     CLOUDY    51  49  92 CALM      30.22S

$$

LAZ001-002-080800-
NORTHWEST LOUISIANA

CITY           SKY/WX    TMP DP  RH WIND       PRES   REMARKS
SHREVEPORT     DRIZZLE   47  45  93 N15G23    30.28R FOG
BARKSDALE AFB  CLOUDY    45  45 100 N12       30.29S
DTN SHREVEPORT CLOUDY    46  43  89 N9        30.30R FOG

$$

LAZ014-016-080800-
NORTHEAST LOUISIANA

CITY           SKY/WX    TMP DP  RH WIND       PRES   REMARKS
MONROE         CLOUDY    47  41  80 N9        30.29R
TALLULAH       CLOUDY    47  42  83 N14       30.25S

$$




USA.gov is the U.S. government's official web portal to all federal, state and local government web resources and services.